Year,Month,Day,Hour,Minute,Value (Times are PST for temperature in C)
2014,05,01,00,00,16.50
2014,05,01,00,01,16.50
2014,05,01,00,02,16.60
2014,05,01,00,03,16.60
2014,05,01,00,04,16.60
2014,05,01,00,05,16.60
2014,05,01,00,06,16.70
2014,05,01,00,07,16.70
2014,05,01,00,08,16.70
2014,05,01,00,09,16.70
2014,05,01,00,10,16.60
2014,05,01,00,11,16.60
2014,05,01,00,12,16.60
2014,05,01,00,13,16.50
2014,05,01,00,14,16.40
2014,05,01,00,15,16.40
2014,05,01,00,16,16.40
2014,05,01,00,17,16.50
2014,05,01,00,18,16.50
2014,05,01,00,19,16.50
2014,05,01,00,20,16.50
2014,05,01,00,21,16.60
2014,05,01,00,22,16.50
2014,05,01,00,23,16.50
2014,05,01,00,24,16.40
2014,05,01,00,25,16.30
2014,05,01,00,26,16.40
2014,05,01,00,27,16.40
2014,05,01,00,28,16.50
2014,05,01,00,29,16.60
2014,05,01,00,30,16.60
2014,05,01,00,31,16.60
2014,05,01,00,32,16.60
2014,05,01,00,33,16.60
2014,05,01,00,34,16.60
2014,05,01,00,35,16.60
2014,05,01,00,36,16.50
2014,05,01,00,37,16.50
2014,05,01,00,38,16.50
2014,05,01,00,39,16.40
2014,05,01,00,40,16.20
2014,05,01,00,41,16.10
2014,05,01,00,42,16.00
2014,05,01,00,43,15.90
2014,05,01,00,44,15.80
2014,05,01,00,45,15.70
2014,05,01,00,46,15.50
2014,05,01,00,47,15.40
2014,05,01,00,48,15.30
2014,05,01,00,49,15.30
2014,05,01,00,50,15.20
2014,05,01,00,51,15.00
2014,05,01,00,52,15.00
2014,05,01,00,53,15.00
2014,05,01,00,54,15.00
2014,05,01,00,55,15.00
2014,05,01,00,56,15.00
2014,05,01,00,57,15.00
2014,05,01,00,58,15.00
2014,05,01,00,59,15.00
2014,05,01,01,00,15.00
2014,05,01,01,01,15.00
2014,05,01,01,02,15.00
2014,05,01,01,03,14.80
2014,05,01,01,04,14.70
2014,05,01,01,05,14.70
2014,05,01,01,06,14.60
2014,05,01,01,07,14.60
2014,05,01,01,08,14.50
2014,05,01,01,09,14.40
2014,05,01,01,10,14.40
2014,05,01,01,11,14.30
2014,05,01,01,12,14.20
2014,05,01,01,13,14.20
2014,05,01,01,14,14.20
2014,05,01,01,15,14.10
2014,05,01,01,16,14.00
2014,05,01,01,17,13.90
2014,05,01,01,18,13.90
2014,05,01,01,19,13.80
2014,05,01,01,20,13.70
2014,05,01,01,21,13.70
2014,05,01,01,22,13.60
2014,05,01,01,23,13.60
2014,05,01,01,24,13.50
2014,05,01,01,25,13.40
2014,05,01,01,26,13.40
2014,05,01,01,27,13.30
2014,05,01,01,28,13.20
2014,05,01,01,29,13.10
2014,05,01,01,30,13.10
2014,05,01,01,31,13.10
2014,05,01,01,32,13.10
2014,05,01,01,33,13.10
2014,05,01,01,34,13.00
2014,05,01,01,35,13.00
2014,05,01,01,36,12.90
2014,05,01,01,37,12.90
2014,05,01,01,38,12.80
2014,05,01,01,39,12.70
2014,05,01,01,40,12.70
2014,05,01,01,41,12.60
2014,05,01,01,42,12.50
2014,05,01,01,43,12.40
2014,05,01,01,44,12.40
2014,05,01,01,45,12.30
2014,05,01,01,46,12.20
2014,05,01,01,47,12.10
2014,05,01,01,48,12.10
2014,05,01,01,49,12.00
2014,05,01,01,50,11.90
2014,05,01,01,51,11.90
2014,05,01,01,52,11.80
2014,05,01,01,53,11.80
2014,05,01,01,54,11.80
2014,05,01,01,55,11.70
2014,05,01,01,56,11.70
2014,05,01,01,57,11.60
2014,05,01,01,58,11.60
2014,05,01,01,59,11.50
2014,05,01,02,00,11.50
2014,05,01,02,01,11.40
2014,05,01,02,02,11.40
2014,05,01,02,03,11.40
2014,05,01,02,04,11.40
2014,05,01,02,05,11.40
2014,05,01,02,06,11.30
2014,05,01,02,07,11.30
2014,05,01,02,08,11.30
2014,05,01,02,09,11.30
2014,05,01,02,10,11.30
2014,05,01,02,11,11.30
2014,05,01,02,12,11.30
2014,05,01,02,13,11.30
2014,05,01,02,14,11.40
2014,05,01,02,15,11.40
2014,05,01,02,16,11.40
2014,05,01,02,17,11.40
2014,05,01,02,18,11.40
2014,05,01,02,19,11.40
2014,05,01,02,20,11.40
2014,05,01,02,21,11.50
2014,05,01,02,22,11.50
2014,05,01,02,23,11.50
2014,05,01,02,24,11.50
2014,05,01,02,25,11.60
2014,05,01,02,26,11.60
2014,05,01,02,27,11.70
2014,05,01,02,28,11.70
2014,05,01,02,29,11.80
2014,05,01,02,30,11.80
2014,05,01,02,31,11.80
2014,05,01,02,32,11.70
2014,05,01,02,33,11.70
2014,05,01,02,34,11.70
2014,05,01,02,35,11.70
2014,05,01,02,36,11.70
2014,05,01,02,37,11.70
2014,05,01,02,38,11.70
2014,05,01,02,39,11.70
2014,05,01,02,40,11.70
2014,05,01,02,41,11.60
2014,05,01,02,42,11.60
2014,05,01,02,43,11.60
2014,05,01,02,44,11.60
2014,05,01,02,45,11.60
2014,05,01,02,46,11.60
2014,05,01,02,47,11.50
2014,05,01,02,48,11.50
2014,05,01,02,49,11.50
2014,05,01,02,50,11.40
2014,05,01,02,51,11.40
2014,05,01,02,52,11.40
2014,05,01,02,53,11.40
2014,05,01,02,54,11.30
2014,05,01,02,55,11.40
2014,05,01,02,56,11.40
2014,05,01,02,57,11.40
2014,05,01,02,58,11.40
2014,05,01,02,59,11.40
2014,05,01,03,00,11.40
2014,05,01,03,01,11.40
2014,05,01,03,02,11.40
2014,05,01,03,03,11.40
2014,05,01,03,04,11.40
2014,05,01,03,05,11.30
2014,05,01,03,06,11.40
2014,05,01,03,07,11.40
2014,05,01,03,08,11.40
2014,05,01,03,09,11.40
2014,05,01,03,10,11.40
2014,05,01,03,11,11.40
2014,05,01,03,12,11.40
2014,05,01,03,13,11.40
2014,05,01,03,14,11.40
2014,05,01,03,15,11.40
2014,05,01,03,16,11.30
2014,05,01,03,17,11.30
2014,05,01,03,18,11.30
2014,05,01,03,19,11.30
2014,05,01,03,20,11.30
2014,05,01,03,21,11.30
2014,05,01,03,22,11.30
2014,05,01,03,23,11.20
2014,05,01,03,24,11.20
2014,05,01,03,25,11.10
2014,05,01,03,26,11.10
2014,05,01,03,27,11.00
2014,05,01,03,28,11.00
2014,05,01,03,29,11.00
2014,05,01,03,30,10.90
2014,05,01,03,31,10.90
2014,05,01,03,32,10.90
2014,05,01,03,33,10.90
2014,05,01,03,34,10.90
2014,05,01,03,35,10.90
2014,05,01,03,36,10.80
2014,05,01,03,37,10.80
2014,05,01,03,38,10.80
2014,05,01,03,39,10.80
2014,05,01,03,40,10.80
2014,05,01,03,41,10.80
2014,05,01,03,42,10.80
2014,05,01,03,43,10.80
2014,05,01,03,44,10.90
2014,05,01,03,45,10.90
2014,05,01,03,46,11.00
2014,05,01,03,47,11.00
2014,05,01,03,48,11.10
2014,05,01,03,49,11.10
2014,05,01,03,50,11.10
2014,05,01,03,51,11.20
2014,05,01,03,52,11.20
2014,05,01,03,53,11.30
2014,05,01,03,54,11.30
2014,05,01,03,55,11.30
2014,05,01,03,56,11.30
2014,05,01,03,57,11.30
2014,05,01,03,58,11.30
2014,05,01,03,59,11.30
2014,05,01,04,00,11.30
2014,05,01,04,01,11.30
2014,05,01,04,02,11.20
2014,05,01,04,03,11.20
2014,05,01,04,04,11.20
2014,05,01,04,05,11.20
2014,05,01,04,06,11.10
2014,05,01,04,07,11.10
2014,05,01,04,08,11.10
2014,05,01,04,09,11.10
2014,05,01,04,10,11.10
2014,05,01,04,11,11.10
2014,05,01,04,12,11.10
2014,05,01,04,13,11.10
2014,05,01,04,14,11.10
2014,05,01,04,15,11.10
2014,05,01,04,16,11.10
2014,05,01,04,17,11.10
2014,05,01,04,18,11.10
2014,05,01,04,19,11.20
2014,05,01,04,20,11.20
2014,05,01,04,21,11.30
2014,05,01,04,22,11.40
2014,05,01,04,23,11.40
2014,05,01,04,24,11.50
2014,05,01,04,25,11.50
2014,05,01,04,26,11.60
2014,05,01,04,27,11.70
2014,05,01,04,28,11.70
2014,05,01,04,29,11.80
2014,05,01,04,30,11.90
2014,05,01,04,31,11.90
2014,05,01,04,32,12.00
2014,05,01,04,33,12.00
2014,05,01,04,34,12.00
2014,05,01,04,35,12.00
2014,05,01,04,36,12.00
2014,05,01,04,37,12.00
2014,05,01,04,38,12.10
2014,05,01,04,39,12.20
2014,05,01,04,40,12.40
2014,05,01,04,41,12.60
2014,05,01,04,42,12.80
2014,05,01,04,43,13.00
2014,05,01,04,44,13.20
2014,05,01,04,45,13.30
2014,05,01,04,46,13.40
2014,05,01,04,47,13.40
2014,05,01,04,48,13.40
2014,05,01,04,49,13.30
2014,05,01,04,50,13.30
2014,05,01,04,51,13.30
2014,05,01,04,52,13.20
2014,05,01,04,53,13.20
2014,05,01,04,54,13.20
2014,05,01,04,55,13.20
2014,05,01,04,56,13.10
2014,05,01,04,57,13.20
2014,05,01,04,58,13.20
2014,05,01,04,59,13.10
2014,05,01,05,00,13.10
2014,05,01,05,01,13.10
2014,05,01,05,02,13.10
2014,05,01,05,03,13.20
2014,05,01,05,04,13.20
2014,05,01,05,05,13.30
2014,05,01,05,06,13.30
2014,05,01,05,07,13.20
2014,05,01,05,08,13.20
2014,05,01,05,09,13.20
2014,05,01,05,10,13.10
2014,05,01,05,11,13.10
2014,05,01,05,12,13.10
2014,05,01,05,13,13.00
2014,05,01,05,14,12.90
2014,05,01,05,15,12.90
2014,05,01,05,16,12.80
2014,05,01,05,17,12.80
2014,05,01,05,18,12.70
2014,05,01,05,19,12.60
2014,05,01,05,20,12.60
2014,05,01,05,21,12.50
2014,05,01,05,22,12.50
2014,05,01,05,23,12.50
2014,05,01,05,24,12.50
2014,05,01,05,25,12.50
2014,05,01,05,26,12.50
2014,05,01,05,27,12.50
2014,05,01,05,28,12.50
2014,05,01,05,29,12.50
2014,05,01,05,30,12.60
2014,05,01,05,31,12.80
2014,05,01,05,32,12.80
2014,05,01,05,33,12.80
2014,05,01,05,34,12.90
2014,05,01,05,35,12.90
2014,05,01,05,36,12.90
2014,05,01,05,37,12.80
2014,05,01,05,38,12.80
2014,05,01,05,39,12.80
2014,05,01,05,40,12.80
2014,05,01,05,41,12.70
2014,05,01,05,42,12.70
2014,05,01,05,43,12.70
2014,05,01,05,44,12.60
2014,05,01,05,45,12.60
2014,05,01,05,46,12.50
2014,05,01,05,47,12.40
2014,05,01,05,48,12.40
2014,05,01,05,49,12.30
2014,05,01,05,50,12.30
2014,05,01,05,51,12.20
2014,05,01,05,52,12.20
2014,05,01,05,53,12.10
2014,05,01,05,54,12.00
2014,05,01,05,55,12.00
2014,05,01,05,56,11.90
2014,05,01,05,57,11.90
2014,05,01,05,58,11.80
2014,05,01,05,59,11.80
2014,05,01,06,00,11.80
2014,05,01,06,01,11.80
2014,05,01,06,02,11.70
2014,05,01,06,03,11.70
2014,05,01,06,04,11.70
2014,05,01,06,05,11.60
2014,05,01,06,06,11.60
2014,05,01,06,07,11.60
2014,05,01,06,08,11.50
2014,05,01,06,09,11.50
2014,05,01,06,10,11.50
2014,05,01,06,11,11.40
2014,05,01,06,12,11.40
2014,05,01,06,13,11.40
2014,05,01,06,14,11.50
2014,05,01,06,15,11.50
2014,05,01,06,16,11.40
2014,05,01,06,17,11.40
2014,05,01,06,18,11.40
2014,05,01,06,19,11.40
2014,05,01,06,20,11.40
2014,05,01,06,21,11.40
2014,05,01,06,22,11.40
2014,05,01,06,23,11.40
2014,05,01,06,24,11.40
2014,05,01,06,25,11.40
2014,05,01,06,26,11.40
2014,05,01,06,27,11.40
2014,05,01,06,28,11.40
2014,05,01,06,29,11.50
2014,05,01,06,30,11.50
2014,05,01,06,31,11.50
2014,05,01,06,32,11.50
2014,05,01,06,33,11.50
2014,05,01,06,34,11.50
2014,05,01,06,35,11.50
2014,05,01,06,36,11.50
2014,05,01,06,37,11.50
2014,05,01,06,38,11.50
2014,05,01,06,39,11.60
2014,05,01,06,40,11.60
2014,05,01,06,41,11.70
2014,05,01,06,42,11.80
2014,05,01,06,43,11.90
2014,05,01,06,44,11.90
2014,05,01,06,45,12.00
2014,05,01,06,46,12.00
2014,05,01,06,47,12.10
2014,05,01,06,48,12.20
2014,05,01,06,49,12.20
2014,05,01,06,50,12.30
2014,05,01,06,51,12.30
2014,05,01,06,52,12.30
2014,05,01,06,53,12.30
2014,05,01,06,54,12.30
2014,05,01,06,55,12.30
2014,05,01,06,56,12.30
2014,05,01,06,57,12.30
2014,05,01,06,58,12.40
2014,05,01,06,59,12.60
2014,05,01,07,00,12.80
2014,05,01,07,01,13.00
2014,05,01,07,02,13.10
2014,05,01,07,03,13.20
2014,05,01,07,04,13.20
2014,05,01,07,05,13.20
2014,05,01,07,06,13.20
2014,05,01,07,07,13.30
2014,05,01,07,08,13.50
2014,05,01,07,09,13.60
2014,05,01,07,10,13.70
2014,05,01,07,11,13.90
2014,05,01,07,12,14.00
2014,05,01,07,13,14.20
2014,05,01,07,14,14.30
2014,05,01,07,15,14.30
2014,05,01,07,16,14.40
2014,05,01,07,17,14.30
2014,05,01,07,18,14.30
2014,05,01,07,19,14.30
2014,05,01,07,20,14.20
2014,05,01,07,21,14.20
2014,05,01,07,22,14.10
2014,05,01,07,23,14.00
2014,05,01,07,24,13.90
2014,05,01,07,25,13.80
2014,05,01,07,26,13.80
2014,05,01,07,27,13.70
2014,05,01,07,28,13.70
2014,05,01,07,29,13.60
2014,05,01,07,30,13.50
2014,05,01,07,31,13.40
2014,05,01,07,32,13.30
2014,05,01,07,33,13.30
2014,05,01,07,34,13.20
2014,05,01,07,35,13.20
2014,05,01,07,36,13.10
2014,05,01,07,37,13.00
2014,05,01,07,38,13.00
2014,05,01,07,39,12.90
2014,05,01,07,40,12.90
2014,05,01,07,41,12.80
2014,05,01,07,42,12.80
2014,05,01,07,43,12.80
2014,05,01,07,44,12.70
2014,05,01,07,45,12.70
2014,05,01,07,46,12.70
2014,05,01,07,47,12.70
2014,05,01,07,48,12.70
2014,05,01,07,49,12.80
2014,05,01,07,50,12.80
2014,05,01,07,51,12.80
2014,05,01,07,52,12.90
2014,05,01,07,53,12.90
2014,05,01,07,54,13.00
2014,05,01,07,55,13.00
2014,05,01,07,56,13.10
2014,05,01,07,57,13.20
2014,05,01,07,58,13.30
2014,05,01,07,59,13.40
2014,05,01,08,00,13.50
2014,05,01,08,01,13.60
2014,05,01,08,02,13.70
2014,05,01,08,03,13.80
2014,05,01,08,04,13.90
2014,05,01,08,05,14.00
2014,05,01,08,06,14.20
2014,05,01,08,07,14.40
2014,05,01,08,08,14.60
2014,05,01,08,09,14.80
2014,05,01,08,10,15.00
2014,05,01,08,11,15.00
2014,05,01,08,12,15.20
2014,05,01,08,13,15.30
2014,05,01,08,14,15.40
2014,05,01,08,15,15.40
2014,05,01,08,16,15.50
2014,05,01,08,17,15.60
2014,05,01,08,18,15.70
2014,05,01,08,19,15.80
2014,05,01,08,20,15.80
2014,05,01,08,21,15.90
2014,05,01,08,22,16.10
2014,05,01,08,23,16.30
2014,05,01,08,24,16.40
2014,05,01,08,25,16.50
2014,05,01,08,26,16.70
2014,05,01,08,27,16.80
2014,05,01,08,28,16.90
2014,05,01,08,29,17.10
2014,05,01,08,30,17.20
2014,05,01,08,31,17.20
2014,05,01,08,32,17.30
2014,05,01,08,33,17.40
2014,05,01,08,34,17.50
2014,05,01,08,35,17.60
2014,05,01,08,36,17.60
2014,05,01,08,37,17.70
2014,05,01,08,38,17.70
2014,05,01,08,39,17.80
2014,05,01,08,40,17.80
2014,05,01,08,41,17.80
2014,05,01,08,42,17.90
2014,05,01,08,43,17.90
2014,05,01,08,44,17.90
2014,05,01,08,45,17.90
2014,05,01,08,46,17.90
2014,05,01,08,47,17.90
2014,05,01,08,48,17.90
2014,05,01,08,49,17.90
2014,05,01,08,50,18.00
2014,05,01,08,51,18.00
2014,05,01,08,52,18.00
2014,05,01,08,53,18.10
2014,05,01,08,54,18.10
2014,05,01,08,55,18.10
2014,05,01,08,56,18.10
2014,05,01,08,57,18.20
2014,05,01,08,58,18.20
2014,05,01,08,59,18.30
2014,05,01,09,00,18.40
2014,05,01,09,01,18.40
2014,05,01,09,02,18.50
2014,05,01,09,03,18.50
2014,05,01,09,04,18.60
2014,05,01,09,05,18.60
2014,05,01,09,06,18.60
2014,05,01,09,07,18.60
2014,05,01,09,08,18.60
2014,05,01,09,09,18.60
2014,05,01,09,10,18.60
2014,05,01,09,11,18.60
2014,05,01,09,12,18.50
2014,05,01,09,13,18.50
2014,05,01,09,14,18.50
2014,05,01,09,15,18.50
2014,05,01,09,16,18.60
2014,05,01,09,17,18.70
2014,05,01,09,18,18.70
2014,05,01,09,19,18.70
2014,05,01,09,20,18.70
2014,05,01,09,21,18.70
2014,05,01,09,22,18.80
2014,05,01,09,23,18.80
2014,05,01,09,24,18.90
2014,05,01,09,25,18.90
2014,05,01,09,26,19.00
2014,05,01,09,27,19.00
2014,05,01,09,28,19.10
2014,05,01,09,29,19.10
2014,05,01,09,30,19.10
2014,05,01,09,31,19.10
2014,05,01,09,32,19.20
2014,05,01,09,33,19.20
2014,05,01,09,34,19.20
2014,05,01,09,35,19.20
2014,05,01,09,36,19.20
2014,05,01,09,37,19.20
2014,05,01,09,38,19.20
2014,05,01,09,39,19.20
2014,05,01,09,40,19.20
2014,05,01,09,41,19.20
2014,05,01,09,42,19.20
2014,05,01,09,43,19.20
2014,05,01,09,44,19.20
2014,05,01,09,45,19.20
2014,05,01,09,46,19.20
2014,05,01,09,47,19.20
2014,05,01,09,48,19.10
2014,05,01,09,49,19.10
2014,05,01,09,50,19.10
2014,05,01,09,51,19.20
2014,05,01,09,52,19.20
2014,05,01,09,53,19.20
2014,05,01,09,54,19.20
2014,05,01,09,55,19.10
2014,05,01,09,56,19.10
2014,05,01,09,57,19.10
2014,05,01,09,58,19.00
2014,05,01,09,59,18.90
2014,05,01,10,00,18.90
2014,05,01,10,01,18.90
2014,05,01,10,02,18.90
2014,05,01,10,03,18.90
2014,05,01,10,04,18.90
2014,05,01,10,05,19.00
2014,05,01,10,06,19.10
2014,05,01,10,07,19.10
2014,05,01,10,08,19.20
2014,05,01,10,09,19.20
2014,05,01,10,10,19.20
2014,05,01,10,11,19.20
2014,05,01,10,12,19.20
2014,05,01,10,13,19.10
2014,05,01,10,14,19.10
2014,05,01,10,15,19.10
2014,05,01,10,16,19.10
2014,05,01,10,17,19.10
2014,05,01,10,18,19.10
2014,05,01,10,19,19.10
2014,05,01,10,20,19.10
2014,05,01,10,21,19.20
2014,05,01,10,22,19.20
2014,05,01,10,23,19.20
2014,05,01,10,24,19.20
2014,05,01,10,25,19.30
2014,05,01,10,26,19.30
2014,05,01,10,27,19.30
2014,05,01,10,28,19.30
2014,05,01,10,29,19.30
2014,05,01,10,30,19.40
2014,05,01,10,31,19.40
2014,05,01,10,32,19.50
2014,05,01,10,33,19.60
2014,05,01,10,34,19.60
2014,05,01,10,35,19.70
2014,05,01,10,36,19.70
2014,05,01,10,37,19.70
2014,05,01,10,38,19.70
2014,05,01,10,39,19.70
2014,05,01,10,40,19.80
2014,05,01,10,41,19.80
2014,05,01,10,42,19.80
2014,05,01,10,43,19.80
2014,05,01,10,44,19.80
2014,05,01,10,45,19.70
2014,05,01,10,46,19.70
2014,05,01,10,47,19.70
2014,05,01,10,48,19.70
2014,05,01,10,49,19.70
2014,05,01,10,50,19.70
2014,05,01,10,51,19.80
2014,05,01,10,52,19.80
2014,05,01,10,53,19.90
2014,05,01,10,54,19.90
2014,05,01,10,55,19.90
2014,05,01,10,56,20.00
2014,05,01,10,57,20.00
2014,05,01,10,58,20.10
2014,05,01,10,59,20.10
2014,05,01,11,00,20.20
2014,05,01,11,01,20.20
2014,05,01,11,02,20.20
2014,05,01,11,03,20.20
2014,05,01,11,04,20.20
2014,05,01,11,05,20.20
2014,05,01,11,06,20.20
2014,05,01,11,07,20.20
2014,05,01,11,08,20.20
2014,05,01,11,09,20.20
2014,05,01,11,10,20.20
2014,05,01,11,11,20.20
2014,05,01,11,12,20.20
2014,05,01,11,13,20.20
2014,05,01,11,14,20.20
2014,05,01,11,15,20.20
2014,05,01,11,16,20.20
2014,05,01,11,17,20.20
2014,05,01,11,18,20.30
2014,05,01,11,19,20.30
2014,05,01,11,20,20.20
2014,05,01,11,21,20.20
2014,05,01,11,22,20.20
2014,05,01,11,23,20.30
2014,05,01,11,24,20.30
2014,05,01,11,25,20.30
2014,05,01,11,26,20.40
2014,05,01,11,27,20.40
2014,05,01,11,28,20.40
2014,05,01,11,29,20.40
2014,05,01,11,30,20.40
2014,05,01,11,31,20.40
2014,05,01,11,32,20.50
2014,05,01,11,33,20.60
2014,05,01,11,34,20.60
2014,05,01,11,35,20.70
2014,05,01,11,36,20.80
2014,05,01,11,37,20.80
2014,05,01,11,38,20.90
2014,05,01,11,39,20.90
2014,05,01,11,40,21.00
2014,05,01,11,41,21.10
2014,05,01,11,42,21.20
2014,05,01,11,43,21.30
2014,05,01,11,44,21.30
2014,05,01,11,45,21.40
2014,05,01,11,46,21.40
2014,05,01,11,47,21.40
2014,05,01,11,48,21.40
2014,05,01,11,49,21.40
2014,05,01,11,50,21.50
2014,05,01,11,51,21.60
2014,05,01,11,52,21.70
2014,05,01,11,53,21.70
2014,05,01,11,54,21.70
2014,05,01,11,55,21.70
2014,05,01,11,56,21.70
2014,05,01,11,57,21.80
2014,05,01,11,58,21.90
2014,05,01,11,59,21.90
2014,05,01,12,00,21.90
2014,05,01,12,01,21.90
2014,05,01,12,02,21.90
2014,05,01,12,03,21.80
2014,05,01,12,04,21.80
2014,05,01,12,05,21.80
2014,05,01,12,06,21.80
2014,05,01,12,07,21.90
2014,05,01,12,08,22.00
2014,05,01,12,09,22.10
2014,05,01,12,10,22.20
2014,05,01,12,11,22.30
2014,05,01,12,12,22.50
2014,05,01,12,13,22.70
2014,05,01,12,14,22.80
2014,05,01,12,15,22.90
2014,05,01,12,16,23.00
2014,05,01,12,17,23.10
2014,05,01,12,18,23.20
2014,05,01,12,19,23.30
2014,05,01,12,20,23.40
2014,05,01,12,21,23.40
2014,05,01,12,22,23.50
2014,05,01,12,23,23.50
2014,05,01,12,24,23.50
2014,05,01,12,25,23.60
2014,05,01,12,26,23.60
2014,05,01,12,27,23.60
2014,05,01,12,28,23.60
2014,05,01,12,29,23.60
2014,05,01,12,30,23.70
2014,05,01,12,31,23.70
2014,05,01,12,32,23.70
2014,05,01,12,33,23.70
2014,05,01,12,34,23.60
2014,05,01,12,35,23.50
2014,05,01,12,36,23.20
2014,05,01,12,37,22.80
2014,05,01,12,38,22.60
2014,05,01,12,39,22.50
2014,05,01,12,40,22.40
2014,05,01,12,41,22.40
2014,05,01,12,42,22.50
2014,05,01,12,43,22.50
2014,05,01,12,44,22.50
2014,05,01,12,45,22.50
2014,05,01,12,46,22.50
2014,05,01,12,47,22.50
2014,05,01,12,48,22.40
2014,05,01,12,49,22.30
2014,05,01,12,50,22.30
2014,05,01,12,51,22.20
2014,05,01,12,52,22.20
2014,05,01,12,53,22.10
2014,05,01,12,54,22.10
2014,05,01,12,55,22.10
2014,05,01,12,56,22.10
2014,05,01,12,57,22.20
2014,05,01,12,58,22.20
2014,05,01,12,59,22.20
2014,05,01,13,00,22.20
2014,05,01,13,01,22.30
2014,05,01,13,02,22.30
2014,05,01,13,03,22.40
2014,05,01,13,04,22.40
2014,05,01,13,05,22.50
2014,05,01,13,06,22.60
2014,05,01,13,07,22.60
2014,05,01,13,08,22.60
2014,05,01,13,09,22.60
2014,05,01,13,10,22.50
2014,05,01,13,11,22.40
2014,05,01,13,12,22.30
2014,05,01,13,13,22.20
2014,05,01,13,14,22.10
2014,05,01,13,15,22.00
2014,05,01,13,16,22.00
2014,05,01,13,17,22.00
2014,05,01,13,18,21.90
2014,05,01,13,19,21.90
2014,05,01,13,20,22.00
2014,05,01,13,21,22.00
2014,05,01,13,22,22.10
2014,05,01,13,23,22.20
2014,05,01,13,24,22.20
2014,05,01,13,25,22.20
2014,05,01,13,26,22.20
2014,05,01,13,27,22.20
2014,05,01,13,28,22.30
2014,05,01,13,29,22.30
2014,05,01,13,30,22.40
2014,05,01,13,31,22.50
2014,05,01,13,32,22.50
2014,05,01,13,33,22.60
2014,05,01,13,34,22.70
2014,05,01,13,35,22.70
2014,05,01,13,36,22.70
2014,05,01,13,37,22.70
2014,05,01,13,38,22.60
2014,05,01,13,39,22.60
2014,05,01,13,40,22.70
2014,05,01,13,41,22.70
2014,05,01,13,42,22.80
2014,05,01,13,43,22.90
2014,05,01,13,44,22.90
2014,05,01,13,45,23.00
2014,05,01,13,46,23.00
2014,05,01,13,47,23.10
2014,05,01,13,48,23.10
2014,05,01,13,49,23.10
2014,05,01,13,50,23.10
2014,05,01,13,51,23.20
2014,05,01,13,52,23.30
2014,05,01,13,53,23.40
2014,05,01,13,54,23.40
2014,05,01,13,55,23.40
2014,05,01,13,56,23.40
2014,05,01,13,57,23.30
2014,05,01,13,58,23.20
2014,05,01,13,59,23.20
2014,05,01,14,00,23.10
2014,05,01,14,01,23.10
2014,05,01,14,02,23.10
2014,05,01,14,03,23.10
2014,05,01,14,04,23.20
2014,05,01,14,05,23.20
2014,05,01,14,06,23.20
2014,05,01,14,07,23.30
2014,05,01,14,08,23.20
2014,05,01,14,09,23.20
2014,05,01,14,10,23.30
2014,05,01,14,11,23.30
2014,05,01,14,12,23.40
2014,05,01,14,13,23.50
2014,05,01,14,14,23.60
2014,05,01,14,15,23.70
2014,05,01,14,16,23.80
2014,05,01,14,17,23.90
2014,05,01,14,18,24.10
2014,05,01,14,19,24.20
2014,05,01,14,20,24.30
2014,05,01,14,21,24.40
2014,05,01,14,22,24.50
2014,05,01,14,23,24.50
2014,05,01,14,24,24.50
2014,05,01,14,25,24.50
2014,05,01,14,26,24.40
2014,05,01,14,27,24.30
2014,05,01,14,28,24.30
2014,05,01,14,29,24.20
2014,05,01,14,30,24.20
2014,05,01,14,31,24.20
2014,05,01,14,32,24.30
2014,05,01,14,33,24.30
2014,05,01,14,34,24.30
2014,05,01,14,35,24.30
2014,05,01,14,36,24.30
2014,05,01,14,37,24.40
2014,05,01,14,38,24.50
2014,05,01,14,39,24.50
2014,05,01,14,40,24.50
2014,05,01,14,41,24.60
2014,05,01,14,42,24.70
2014,05,01,14,43,24.80
2014,05,01,14,44,24.90
2014,05,01,14,45,24.90
2014,05,01,14,46,25.00
2014,05,01,14,47,25.10
2014,05,01,14,48,25.10
2014,05,01,14,49,25.10
2014,05,01,14,50,25.10
2014,05,01,14,51,25.20
2014,05,01,14,52,25.30
2014,05,01,14,53,25.40
2014,05,01,14,54,25.60
2014,05,01,14,55,25.70
2014,05,01,14,56,25.90
2014,05,01,14,57,25.90
2014,05,01,14,58,25.90
2014,05,01,14,59,25.80
2014,05,01,15,00,25.70
2014,05,01,15,01,25.70
2014,05,01,15,02,25.80
2014,05,01,15,03,25.90
2014,05,01,15,04,25.90
2014,05,01,15,05,26.00
2014,05,01,15,06,26.10
2014,05,01,15,07,26.20
2014,05,01,15,08,26.30
2014,05,01,15,09,26.30
2014,05,01,15,10,26.30
2014,05,01,15,11,26.20
2014,05,01,15,12,26.20
2014,05,01,15,13,26.10
2014,05,01,15,14,26.10
2014,05,01,15,15,26.00
2014,05,01,15,16,25.90
2014,05,01,15,17,25.90
2014,05,01,15,18,25.90
2014,05,01,15,19,25.90
2014,05,01,15,20,26.00
2014,05,01,15,21,26.10
2014,05,01,15,22,26.20
2014,05,01,15,23,26.30
2014,05,01,15,24,26.40
2014,05,01,15,25,26.40
2014,05,01,15,26,26.40
2014,05,01,15,27,26.40
2014,05,01,15,28,26.40
2014,05,01,15,29,26.50
2014,05,01,15,30,26.50
2014,05,01,15,31,26.60
2014,05,01,15,32,26.60
2014,05,01,15,33,26.70
2014,05,01,15,34,26.80
2014,05,01,15,35,26.80
2014,05,01,15,36,26.80
2014,05,01,15,37,26.80
2014,05,01,15,38,26.70
2014,05,01,15,39,26.70
2014,05,01,15,40,26.60
2014,05,01,15,41,26.60
2014,05,01,15,42,26.50
2014,05,01,15,43,26.50
2014,05,01,15,44,26.40
2014,05,01,15,45,26.20
2014,05,01,15,46,26.00
2014,05,01,15,47,25.90
2014,05,01,15,48,25.70
2014,05,01,15,49,25.70
2014,05,01,15,50,25.60
2014,05,01,15,51,25.60
2014,05,01,15,52,25.50
2014,05,01,15,53,25.50
2014,05,01,15,54,25.50
2014,05,01,15,55,25.40
2014,05,01,15,56,25.40
2014,05,01,15,57,25.40
2014,05,01,15,58,25.40
2014,05,01,15,59,25.40
2014,05,01,16,00,25.40
2014,05,01,16,01,25.40
2014,05,01,16,02,25.40
2014,05,01,16,03,25.40
2014,05,01,16,04,25.40
2014,05,01,16,05,25.40
2014,05,01,16,06,25.40
2014,05,01,16,07,25.40
2014,05,01,16,08,25.30
2014,05,01,16,09,25.30
2014,05,01,16,10,25.20
2014,05,01,16,11,25.20
2014,05,01,16,12,25.10
2014,05,01,16,13,25.10
2014,05,01,16,14,25.10
2014,05,01,16,15,25.10
2014,05,01,16,16,25.00
2014,05,01,16,17,25.00
2014,05,01,16,18,25.00
2014,05,01,16,19,25.10
2014,05,01,16,20,25.10
2014,05,01,16,21,25.10
2014,05,01,16,22,25.10
2014,05,01,16,23,25.10
2014,05,01,16,24,25.10
2014,05,01,16,25,25.10
2014,05,01,16,26,25.10
2014,05,01,16,27,25.10
2014,05,01,16,28,25.10
2014,05,01,16,29,25.00
2014,05,01,16,30,25.00
2014,05,01,16,31,25.00
2014,05,01,16,32,24.90
2014,05,01,16,33,24.90
2014,05,01,16,34,24.80
2014,05,01,16,35,24.70
2014,05,01,16,36,24.60
2014,05,01,16,37,24.60
2014,05,01,16,38,24.60
2014,05,01,16,39,24.50
2014,05,01,16,40,24.50
2014,05,01,16,41,24.60
2014,05,01,16,42,24.60
2014,05,01,16,43,24.60
2014,05,01,16,44,24.60
2014,05,01,16,45,24.50
2014,05,01,16,46,24.50
2014,05,01,16,47,24.60
2014,05,01,16,48,24.60
2014,05,01,16,49,24.60
2014,05,01,16,50,24.50
2014,05,01,16,51,24.50
2014,05,01,16,52,24.50
2014,05,01,16,53,24.50
2014,05,01,16,54,24.40
2014,05,01,16,55,24.40
2014,05,01,16,56,24.30
2014,05,01,16,57,24.20
2014,05,01,16,58,24.20
2014,05,01,16,59,24.10
2014,05,01,17,00,24.10
2014,05,01,17,01,24.10
2014,05,01,17,02,24.10
2014,05,01,17,03,24.10
2014,05,01,17,04,24.10
2014,05,01,17,05,24.10
2014,05,01,17,06,24.10
2014,05,01,17,07,24.10
2014,05,01,17,08,24.10
2014,05,01,17,09,24.10
2014,05,01,17,10,24.10
2014,05,01,17,11,24.20
2014,05,01,17,12,24.20
2014,05,01,17,13,24.20
2014,05,01,17,14,24.30
2014,05,01,17,15,24.30
2014,05,01,17,16,24.30
2014,05,01,17,17,24.30
2014,05,01,17,18,24.30
2014,05,01,17,19,24.30